This demonstration page uses our WeatherBlox Daily Observations layout. Learn more.

Left ArrowRight Arrow

Hourly Observations for February 23, 2016

Temp ( °F °C ) Dew Point ( °F °C ) Humidity (%) Winds ( mph kmh ) Pressure ( in mb ) Visibility ( mi km ) Precip ( " mm )
12:15 am 00:15 Cloudy 37 3 31 -0.6 77 77 NNW 3 6 30.06 1018 10 16 N/A
12:35 am 00:35 Cloudy 37 3 32 -0.2 80 80 NNE 6 9 30.06 1018 10 16 N/A
12:55 am 00:55 Cloudy 37 3 32 undefined 81 81 NE 7 11 30.06 1018 10 16 N/A
1:15 am 01:15 Cloudy 38 3.3 32 undefined 79 79 NE 3 6 30.06 1018 10 16 N/A
1:35 am 01:35 Cloudy with Light Rain 38 3.6 32 undefined 78 78 N N/A 30.06 1018 10 16 N/A
1:55 am 01:55 Cloudy 39 3.7 32 0.2 78 78 N N/A 30.06 1018 10 16 N/A
2:15 am 02:15 Mostly Cloudy 38 3.3 32 undefined 79 79 ESE 3 6 30.06 1018 10 16 N/A
2:35 am 02:35 Cloudy 36 2.2 32 undefined 86 86 ESE 5 7 30.09 1019 10 16 N/A
2:55 am 02:55 Mostly Cloudy 35 1.7 32 undefined 89 89 E 5 7 30.09 1019 10 16 N/A
3:15 am 03:15 Cloudy 35 1.8 32 undefined 88 88 N N/A 30.09 1019 10 16 N/A
3:35 am 03:35 Cloudy 35 1.8 32 undefined 88 88 N N/A 30.09 1019 10 16 N/A
3:55 am 03:55 Mostly Cloudy 34 0.9 31 -0.5 90 90 N N/A 30.09 1019 10 16 N/A
4:15 am 04:15 Partly Cloudy 33 0.4 31 -0.5 94 94 N N/A 30.09 1019 10 16 N/A
4:35 am 04:35 Clear 32 -0.1 30 -1.1 93 93 N N/A 30.09 1019 10 16 N/A
4:55 am 04:55 Clear 30 -1.3 28 -2.2 94 94 WNW 5 7 30.15 1021 10 16 N/A
5:15 am 05:15 Clear 30 -0.9 29 -1.8 94 94 NW 3 6 30.15 1021 10 16 N/A
5:35 am 05:35 Clear 30 -1.2 28 -2.2 93 93 NW 6 9 30.15 1021 10 16 N/A
5:55 am 05:55 Clear 30 -1 28 -2 93 93 NNW 5 7 30.18 1022 10 16 N/A
6:15 am 06:15 Clear 31 -0.3 30 -1.3 93 93 NNW 9 15 30.18 1022 10 16 N/A
6:35 am 06:35 Clear 32 0.1 28 -2.4 83 83 NNW 8 13 30.18 1022 10 16 N/A
6:55 am 06:55 Clear 32 0.2 26 -3.1 79 79 N 9 15 30.18 1022 10 16 N/A
7:15 am 07:15 Clear 32 0.1 26 -3.5 77 77 NNW 12 19 30.21 1023 10 16 N/A
7:35 am 07:35 Sunny 32 0.2 25 -4 74 74 NNW 14 22 30.21 1023 10 16 N/A
7:55 am 07:55 Sunny 33 0.5 24 -4.2 71 71 N 12 19 30.18 1022 10 16 N/A
8:15 am 08:15 Sunny 34 1.1 25 -4.1 69 69 NNW 12 19 30.21 1023 10 16 N/A
8:35 am 08:35 Sunny 35 1.5 25 -4.1 67 67 N 13 20 30.21 1023 10 16 N/A
8:55 am 08:55 Sunny 35 1.6 24 -4.4 65 65 NNW 13 20 30.21 1023 10 16 N/A
9:15 am 09:15 Sunny 36 2.1 25 -4 64 64 N 18 30 30.21 1023 10 16 N/A
9:35 am 09:35 Sunny 37 3 25 -3.7 62 62 NNW 17 28 30.21 1023 10 16 N/A
9:55 am 09:55 Sunny 39 3.7 25 -4 58 58 NNW 17 28 30.18 1022 10 16 N/A
10:15 am 10:15 Sunny 39 4 25 -4.1 56 56 N 22 35 30.18 1022 10 16 N/A
10:35 am 10:35 Sunny 39 4.1 24 -4.5 54 54 N 22 35 30.18 1022 10 16 N/A
10:55 am 10:55 Sunny 41 4.9 25 -3.7 54 54 N 21 33 30.18 1022 10 16 N/A
11:15 am 11:15 Sunny 41 5 24 -4.2 52 52 NNW 22 35 30.18 1022 10 16 N/A
11:35 am 11:35 Sunny 41 5.1 23 -5.2 48 48 NNW 22 35 30.18 1022 10 16 N/A
11:55 am 11:55 Sunny 42 5.5 23 -5 47 47 N 18 30 30.18 1022 10 16 N/A
12:15 pm 12:15 Sunny 43 6 22 -5.6 44 44 N 21 33 30.18 1022 10 16 N/A
12:35 pm 12:35 Sunny 43 6.1 21 -6.2 41 41 NNW 24 39 30.15 1021 10 16 N/A
12:55 pm 12:55 Sunny 43 6.3 19 -7.1 38 38 NNW 23 37 30.15 1021 10 16 N/A
1:15 pm 13:15 Sunny 45 7.1 19 -7.2 36 36 NNW 22 35 30.12 1020 10 16 N/A
1:35 pm 13:35 Sunny 44 6.6 18 -7.8 35 35 N 22 35 30.12 1020 10 16 N/A
1:55 pm 13:55 Sunny 45 7 18 -7.8 34 34 N 22 35 30.12 1020 10 16 N/A
2:15 pm 14:15 Sunny 46 7.6 18 -8 32 32 N 21 33 30.12 1020 10 16 N/A
2:35 pm 14:35 Sunny 45 7.4 17 -8.3 32 32 N 22 35 30.09 1019 10 16 N/A
2:55 pm 14:55 Sunny 46 7.6 18 -8 32 32 N 18 30 30.09 1019 10 16 N/A
3:15 pm 15:15 Sunny 46 8 17 -8.1 31 31 N 20 31 30.09 1019 10 16 N/A
3:35 pm 15:35 Sunny 46 8 18 -7.8 32 32 N 20 31 30.09 1019 10 16 N/A
3:55 pm 15:55 Sunny 46 7.9 16 -8.8 30 30 N 21 33 30.09 1019 10 16 N/A
4:15 pm 16:15 Sunny 47 8.1 16 -8.7 30 30 N 18 30 30.09 1019 10 16 N/A
4:35 pm 16:35 Sunny 46 7.9 15 -9.5 28 28 N 18 30 30.09 1019 10 16 N/A
4:55 pm 16:55 Sunny 46 7.8 14 -9.9 28 28 N 21 33 30.09 1019 10 16 N/A
5:15 pm 17:15 Sunny 46 7.6 15 -9.5 29 29 N 13 20 30.09 1019 10 16 N/A
5:35 pm 17:35 Sunny 45 7.2 15 -9.2 30 30 N 14 22 30.09 1019 10 16 N/A
5:55 pm 17:55 Sunny 43 6.3 16 -8.7 34 34 N 14 22 30.15 1021 10 16 N/A
6:15 pm 18:15 Sunny 40 4.7 18 -7.8 40 40 N 8 13 30.15 1021 10 16 N/A
6:35 pm 18:35 Clear 38 3.2 18 -7.8 45 45 N 7 11 30.18 1022 10 16 N/A
6:55 pm 18:55 Clear 37 2.7 18 -7.7 47 47 N 9 15 30.18 1022 10 16 N/A
7:15 pm 19:15 Clear 37 3 17 -8.2 44 44 N 10 17 30.21 1023 10 16 N/A
7:35 pm 19:35 Clear 35 1.9 18 -7.9 49 49 N 8 13 30.21 1023 10 16 N/A
7:55 pm 19:55 Clear 33 0.4 18 -7.7 55 55 N 7 11 30.24 1024 10 16 N/A
8:15 pm 20:15 Clear 35 1.4 18 -7.9 50 50 N 10 17 30.21 1023 10 16 N/A
8:35 pm 20:35 Clear 33 0.6 18 -7.7 54 54 N 9 15 30.21 1023 10 16 N/A
8:55 pm 20:55 Clear 33 0.5 18 -7.6 55 55 N 10 17 30.21 1023 10 16 N/A
9:15 pm 21:15 Clear 34 1 18 -7.7 53 53 N 9 15 30.21 1023 10 16 N/A
9:35 pm 21:35 Clear 32 undefined 19 -7.3 58 58 N 8 13 30.24 1024 10 16 N/A
9:55 pm 21:55 Clear 32 0.1 18 -7.8 56 56 NNW 8 13 30.24 1024 10 16 N/A
10:15 pm 22:15 Clear 29 -1.4 18 -8 61 61 NNW 6 9 30.24 1024 10 16 N/A
10:35 pm 22:35 Clear 30 -1.2 18 -7.8 61 61 NNW 6 9 30.24 1024 10 16 N/A
10:55 pm 22:55 Clear 28 -2.5 18 -7.8 67 67 NW 7 11 30.24 1024 10 16 N/A
11:15 pm 23:15 Clear 27 -2.8 18 -7.8 69 69 WNW 6 9 30.27 1025 10 16 N/A
11:35 pm 23:35 Clear 27 -2.6 18 -7.9 67 67 WNW 6 9 30.27 1025 10 16 N/A
11:55 pm 23:55 Clear 27 -3 18 -7.9 69 69 WNW 5 7 30.27 1025 10 16 N/A

Powered by AerisWeather